| time (UTC) | temp C | wind direction | speed KPH | gust KPH | rain 1hr cm | rain 24hr cm | rain mn cm | humidity % | barometer mb |
| 20260904133054 | 7 | 204 | 0.0 | 0.0 | 0.00 | 0.03 | 0.00 | 79 | 1009.7 |
| 20260904131601 | 6 | 204 | 0.0 | 0.0 | 0.00 | 0.03 | 0.00 | 81 | 1009.8 |
| 20260904130052 | 6 | 204 | 0.0 | 0.0 | 0.00 | 0.03 | 0.00 | 81 | 1009.7 |
| 20260904124551 | 6 | 204 | 0.0 | 0.0 | 0.00 | 0.03 | 0.00 | 81 | 1009.5 |
| 20260904123049 | 6 | 204 | 0.0 | 0.0 | 0.00 | 0.03 | 0.00 | 81 | 1009.5 |
| 20260904121547 | 6 | 204 | 0.0 | 0.0 | 0.00 | 0.03 | 0.00 | 79 | 1009.4 |
| 20260904120044 | 7 | 204 | 0.0 | 0.0 | 0.00 | 0.03 | 0.00 | 81 | 1009.3 |
| 20260904114541 | 7 | 204 | 0.0 | 0.0 | 0.00 | 0.03 | 0.00 | 79 | 1009.0 |
| 20260904113043 | 8 | 204 | 0.0 | 0.0 | 0.00 | 0.03 | 0.00 | 77 | 1008.9 |
| 20260904111538 | 8 | 204 | 0.0 | 0.0 | 0.00 | 0.03 | 0.00 | 77 | 1008.7 |
| 20260904110032 | 8 | 204 | 0.0 | 0.0 | 0.00 | 0.03 | 0.00 | 75 | 1008.5 |
| 20260904104530 | 9 | 204 | 0.0 | 0.0 | 0.00 | 0.05 | 0.00 | 72 | 1008.5 |
| 20260904103027 | 9 | 203 | 0.0 | 0.0 | 0.00 | 0.05 | 0.00 | 72 | 1008.3 |
| 20260904101525 | 10 | 201 | 0.0 | 0.0 | 0.00 | 0.05 | 0.00 | 70 | 1007.9 |
| 20260904100028 | 10 | 205 | 0.0 | 0.0 | 0.00 | 0.05 | 0.00 | 71 | 1007.5 |
| 20260904094532 | 9 | 205 | 0.0 | 0.0 | 0.00 | 0.20 | 0.00 | 73 | 1007.6 |
| 20260904093022 | 10 | 205 | 0.0 | 0.0 | 0.00 | 0.20 | 0.00 | 72 | 1007.8 |
| 20260904091520 | 10 | 205 | 0.0 | 0.0 | 0.00 | 0.20 | 0.00 | 71 | 1007.7 |
| 20260904090019 | 10 | 205 | 0.0 | 0.0 | 0.00 | 0.20 | 0.00 | 69 | 1007.7 |
| 20260904084516 | 10 | 205 | 0.0 | 0.0 | 0.00 | 0.23 | 0.00 | 68 | 1007.7 |
| 20260904083027 | 10 | 205 | 0.0 | 0.0 | 0.00 | 0.23 | 0.00 | 66 | 1007.4 |
| 20260904081512 | 10 | 205 | 0.0 | 0.0 | 0.00 | 0.23 | 0.00 | 65 | 1007.2 |
| 20260904080009 | 11 | 205 | 0.0 | 0.0 | 0.00 | 0.23 | 0.00 | 63 | 1007.3 |
| 20260904074506 | 11 | 205 | 0.0 | 0.0 | 0.00 | 0.23 | 0.00 | 62 | 1007.1 |
| 20260904073003 | 11 | 137 | 0.0 | 0.0 | 0.00 | 0.23 | 0.00 | 59 | 1006.8 |
| 20260904071501 | 11 | 94 | 0.0 | 0.0 | 0.00 | 0.23 | 0.00 | 60 | 1006.8 |
| 20260904070059 | 11 | 110 | 0.0 | 0.0 | 0.00 | 0.23 | 0.00 | 60 | 1006.7 |
| 20260904064601 | 12 | 114 | 0.0 | 0.0 | 0.00 | 0.46 | 0.23 | 59 | 1006.7 |
| 20260904063106 | 12 | 130 | 0.0 | 0.0 | 0.00 | 0.46 | 0.23 | 59 | 1006.7 |
| 20260904061557 | 12 | 121 | 0.0 | 0.0 | 0.00 | 0.46 | 0.23 | 59 | 1006.8 |
| 20260904060105 | 12 | 133 | 0.0 | 0.0 | 0.00 | 0.46 | 0.23 | 60 | 1006.8 |
| 20260904054628 | 12 | 135 | 0.0 | 0.0 | 0.00 | 0.61 | 0.23 | 61 | 1006.7 |
| 20260904053057 | 12 | 130 | 0.0 | 0.0 | 0.00 | 0.61 | 0.23 | 61 | 1006.7 |
| 20260904051556 | 12 | 139 | 0.0 | 0.0 | 0.00 | 0.61 | 0.23 | 61 | 1006.8 |
| 20260904050055 | 12 | 127 | 0.0 | 0.0 | 0.00 | 0.61 | 0.23 | 61 | 1006.9 |
| 20260904044555 | 12 | 124 | 0.0 | 0.0 | 0.00 | 0.71 | 0.23 | 59 | 1007.1 |
| 20260904043100 | 13 | 134 | 0.0 | 0.0 | 0.00 | 0.71 | 0.23 | 57 | 1006.7 |
| 20260904041601 | 13 | 133 | 0.0 | 0.0 | 0.00 | 0.71 | 0.23 | 56 | 1006.5 |
| 20260904040053 | 13 | 134 | 0.0 | 0.0 | 0.00 | 0.71 | 0.23 | 56 | 1006.5 |
| 20260904034553 | 13 | 131 | 0.0 | 0.0 | 0.00 | 0.84 | 0.23 | 55 | 1006.4 |
| 20260904033053 | 13 | 122 | 0.0 | 0.0 | 0.00 | 0.84 | 0.23 | 54 | 1006.2 |
| 20260904031558 | 13 | 135 | 0.0 | 0.0 | 0.00 | 0.84 | 0.23 | 54 | 1006.3 |
| 20260904030052 | 13 | 90 | 0.0 | 0.0 | 0.00 | 0.84 | 0.23 | 54 | 1006.0 |
| 20260904024557 | 14 | 127 | 0.0 | 0.0 | 0.00 | 0.84 | 0.23 | 52 | 1005.9 |
| 20260904023052 | 14 | 117 | 0.0 | 0.0 | 0.00 | 0.84 | 0.23 | 52 | 1006.0 |
| 20260904021552 | 14 | 136 | 0.0 | 0.0 | 0.00 | 0.84 | 0.23 | 52 | 1006.0 |
| 20260904020050 | 15 | 146 | 0.0 | 0.0 | 0.00 | 0.84 | 0.23 | 49 | 1006.0 |
| 20260904014614 | 16 | 17 | 0.0 | 0.0 | 0.00 | 0.84 | 0.23 | 58 | 1005.8 |
| 20260904013105 | 15 | 16 | 0.0 | 0.0 | 0.00 | 0.84 | 0.23 | 60 | 1005.8 |
| 20260904011548 | 16 | 338 | 0.0 | 0.0 | 0.00 | 0.84 | 0.23 | 60 | 1006.0 |
| 20260904010050 | 16 | 338 | 0.0 | 0.0 | 0.00 | 0.84 | 0.23 | 58 | 1006.1 |
| 20260904004547 | 16 | 338 | 0.0 | 0.0 | 0.00 | 0.84 | 0.23 | 57 | 1005.9 |
| 20260904003046 | 16 | 338 | 0.0 | 0.0 | 0.00 | 0.84 | 0.23 | 56 | 1005.8 |
| 20260904001546 | 16 | 338 | 0.0 | 0.0 | 0.00 | 0.84 | 0.23 | 55 | 1005.8 |
| 20260904000048 | 17 | 305 | 0.0 | 0.0 | 0.00 | 0.84 | 0.23 | 51 | 1006.1 |
| 20260903234547 | 17 | 299 | 0.0 | 0.0 | 0.00 | 0.84 | 0.23 | 52 | 1006.2 |
| 20260903233045 | 17 | 293 | 0.0 | 0.0 | 0.00 | 0.84 | 0.23 | 50 | 1006.2 |
| 20260903231546 | 17 | 197 | 0.0 | 0.0 | 0.00 | 0.84 | 0.23 | 49 | 1006.4 |
| 20260903230044 | 17 | 197 | 0.0 | 0.0 | 0.00 | 0.84 | 0.23 | 50 | 1006.3 |
| 20260903224544 | 17 | 193 | 0.0 | 0.0 | 0.00 | 0.84 | 0.23 | 49 | 1006.5 |
| 20260903223053 | 17 | 201 | 0.0 | 0.0 | 0.00 | 0.84 | 0.23 | 49 | 1006.7 |
| 20260903221542 | 17 | 201 | 0.0 | 0.0 | 0.00 | 0.84 | 0.23 | 51 | 1006.7 |
| 20260903220042 | 17 | 258 | 0.0 | 0.0 | 0.00 | 0.84 | 0.23 | 48 | 1006.5 |
| 20260903214543 | 17 | 258 | 0.0 | 0.0 | 0.00 | 0.84 | 0.23 | 51 | 1006.6 |
| 20260903213044 | 17 | 258 | 0.0 | 0.0 | 0.00 | 0.84 | 0.23 | 49 | 1007.0 |
| 20260903211557 | 17 | 256 | 0.0 | 0.0 | 0.00 | 0.84 | 0.23 | 48 | 1007.3 |
| 20260903210040 | 17 | 255 | 0.0 | 0.0 | 0.00 | 0.84 | 0.23 | 48 | 1007.1 |
| 20260903204539 | 17 | 254 | 0.0 | 0.0 | 0.00 | 0.84 | 0.23 | 48 | 1007.2 |
| 20260903203040 | 17 | 254 | 0.0 | 0.0 | 0.00 | 0.84 | 0.23 | 49 | 1007.6 |
| 20260903201536 | 17 | 254 | 0.0 | 0.0 | 0.00 | 0.84 | 0.23 | 50 | 1007.7 |
| 20260903200033 | 16 | 254 | 0.0 | 0.0 | 0.00 | 0.84 | 0.23 | 49 | 1007.8 |
| 20260903194533 | 16 | 254 | 0.0 | 0.0 | 0.00 | 0.84 | 0.23 | 50 | 1008.0 |
| 20260903193031 | 17 | 254 | 0.0 | 0.0 | 0.00 | 0.84 | 0.23 | 50 | 1007.7 |
| 20260903191531 | 16 | 253 | 0.0 | 0.0 | 0.00 | 0.84 | 0.23 | 51 | 1007.9 |
| 20260903190030 | 16 | 254 | 0.0 | 0.0 | 0.00 | 0.84 | 0.23 | 51 | 1008.0 |
| 20260903184530 | 16 | 253 | 0.0 | 0.0 | 0.00 | 0.84 | 0.23 | 52 | 1008.2 |
| 20260903183029 | 16 | 253 | 0.0 | 0.0 | 0.00 | 0.84 | 0.23 | 53 | 1008.1 |
| 20260903181527 | 16 | 253 | 0.0 | 0.0 | 0.00 | 0.84 | 0.23 | 52 | 1008.2 |
| 20260903180027 | 17 | 254 | 0.0 | 0.0 | 0.00 | 0.84 | 0.23 | 51 | 1008.4 |
| 20260903174534 | 16 | 254 | 0.0 | 0.0 | 0.03 | 0.84 | 0.23 | 53 | 1008.4 |
| 20260903173034 | 16 | 253 | 0.0 | 0.0 | 0.03 | 0.84 | 0.23 | 57 | 1008.5 |
| 20260903171521 | 16 | 251 | 0.0 | 0.0 | 0.03 | 0.84 | 0.23 | 56 | 1008.5 |
| 20260903170028 | 15 | 257 | 0.0 | 0.0 | 0.03 | 0.84 | 0.23 | 54 | 1008.5 |
| 20260903164518 | 15 | 257 | 0.0 | 0.0 | 0.00 | 0.81 | 0.20 | 53 | 1008.3 |
| 20260903163016 | 15 | 258 | 0.0 | 0.0 | 0.00 | 0.81 | 0.20 | 57 | 1008.4 |
| 20260903161512 | 14 | 168 | 0.0 | 0.0 | 0.00 | 0.81 | 0.20 | 63 | 1008.3 |
| 20260903160010 | 14 | 126 | 0.0 | 0.0 | 0.00 | 0.81 | 0.20 | 64 | 1008.5 |
| 20260903154509 | 14 | 112 | 0.0 | 0.0 | 0.00 | 0.81 | 0.20 | 68 | 1008.5 |
| 20260903153005 | 13 | 96 | 0.0 | 0.0 | 0.00 | 0.81 | 0.20 | 72 | 1008.5 |
| 20260903151503 | 13 | 125 | 0.0 | 0.0 | 0.00 | 0.81 | 0.20 | 78 | 1008.6 |
| 20260903150101 | 13 | 115 | 0.0 | 0.0 | 0.00 | 0.81 | 0.20 | 82 | 1008.6 |
| 20260903144602 | 12 | 113 | 0.0 | 0.0 | 0.00 | 0.81 | 0.20 | 80 | 1008.7 |
| 20260903143105 | 12 | 106 | 0.0 | 0.0 | 0.00 | 0.81 | 0.20 | 80 | 1008.6 |
| 20260903141555 | 11 | 85 | 0.0 | 0.0 | 0.00 | 0.81 | 0.20 | 86 | 1008.5 |
| 20260903140055 | 11 | 135 | 0.0 | 0.0 | 0.00 | 0.81 | 0.20 | 87 | 1008.5 |
| 20260903134601 | 11 | 146 | 0.0 | 0.0 | 0.00 | 0.81 | 0.20 | 86 | 1008.5 |